Total_Precipitation_Accumulation
1.00 1.08 1.18 1.25 1.28 1.25 1.25 1.25 1.32 1.36 1.27 1.08 1.01 0.97 0.91 0.93 1.10 0.85 0.84 1.01 0.92 0.86 0.81 0.76 0.72 0.66 0.60 0.57 0.54 0.53 0.52 0.53 0.56 0.59 0.64 0.71 0.81 0.91
0.78 0.87 0.97 1.08 1.21 1.27 1.35 1.34 1.30 1.29 1.27 1.10 1.04 1.03 0.94 0.90 1.10 0.91 0.90 0.95 0.80 0.71 0.63 0.58 0.56 0.53 0.50 0.47 0.46 0.44 0.41 0.40 0.40 0.41 0.45 0.50 0.57 0.66
0.61 0.66 0.76 0.83 0.93 1.02 1.08 1.12 1.16 1.16 1.17 1.12 1.04 1.03 1.00 0.96 0.95 0.84 0.79 0.76 0.73 0.67 0.54 0.49 0.46 0.43 0.42 0.42 0.41 0.39 0.37 0.35 0.35 0.34 0.36 0.39 0.43 0.47
0.45 0.50 0.57 0.61 0.68 0.72 0.77 0.83 0.88 0.93 0.97 1.07 1.10 1.02 0.99 0.93 0.87 0.76 0.62 0.56 0.58 0.59 0.51 0.46 0.44 0.43 0.41 0.41 0.40 0.35 0.29 0.24 0.23 0.24 0.27 0.29 0.32 0.35
0.35 0.39 0.44 0.46 0.49 0.50 0.54 0.57 0.63 0.72 0.86 0.98 1.04 1.00 0.93 0.85 0.79 0.65 0.57 0.58 0.45 0.45 0.41 0.40 0.41 0.39 0.36 0.31 0.28 0.26 0.21 0.16 0.14 0.14 0.16 0.19 0.23 0.25
0.29 0.31 0.34 0.36 0.38 0.40 0.41 0.44 0.51 0.64 0.77 0.86 0.86 0.82 0.79 0.71 0.71 0.65 0.57 0.52 0.44 0.32 0.31 0.28 0.28 0.26 0.24 0.21 0.19 0.17 0.16 0.15 0.14 0.13 0.12 0.11 0.12 0.12
0.24 0.23 0.26 0.30 0.35 0.35 0.35 0.40 0.48 0.60 0.68 0.72 0.71 0.65 0.63 0.63 0.64 0.58 0.53 0.48 0.40 0.31 0.30 0.24 0.24 0.26 0.27 0.24 0.20 0.15 0.10 0.08 0.08 0.09 0.09 0.08 0.08 0.08
0.27 0.24 0.24 0.24 0.28 0.30 0.33 0.39 0.47 0.51 0.54 0.56 0.56 0.58 0.55 0.55 0.59 0.57 0.54 0.54 0.50 0.37 0.36 0.29 0.23 0.31 0.33 0.29 0.21 0.14 0.10 0.08 0.07 0.06 0.07 0.08 0.08 0.07
0.33 0.30 0.25 0.22 0.28 0.31 0.32 0.34 0.39 0.40 0.44 0.50 0.54 0.55 0.54 0.60 0.68 0.66 0.63 0.61 0.56 0.43 0.46 0.44 0.34 0.37 0.28 0.21 0.19 0.15 0.12 0.11 0.09 0.05 0.04 0.05 0.07 0.07
0.33 0.33 0.34 0.33 0.30 0.30 0.26 0.29 0.34 0.38 0.41 0.44 0.54 0.53 0.49 0.54 0.64 0.67 0.62 0.59 0.57 0.53 0.55 0.56 0.41 0.36 0.26 0.32 0.29 0.20 0.15 0.16 0.14 0.07 0.05 0.03 0.04 0.06
0.25 0.28 0.28 0.29 0.29 0.32 0.30 0.32 0.35 0.40 0.39 0.45 0.49 0.51 0.55 0.59 0.59 0.61 0.66 0.73 0.70 0.62 0.61 0.62 0.53 0.42 0.34 0.39 0.36 0.25 0.23 0.29 0.27 0.15 0.07 0.05 0.05 0.06
0.23 0.24 0.26 0.23 0.21 0.21 0.22 0.31 0.42 0.41 0.39 0.44 0.59 0.76 0.81 0.77 0.68 0.67 0.75 0.80 0.79 0.82 0.71 0.68 0.64 0.52 0.49 0.41 0.40 0.41 0.45 0.52 0.46 0.30 0.15 0.10 0.11 0.15
0.22 0.24 0.26 0.21 0.17 0.17 0.21 0.29 0.36 0.35 0.40 0.56 0.76 0.87 0.85 0.75 0.66 0.64 0.69 0.76 0.82 0.89 0.73 0.68 0.70 0.65 0.70 0.59 0.40 0.44 0.56 0.70 0.72 0.57 0.35 0.22 0.18 0.19
0.23 0.22 0.23 0.22 0.17 0.18 0.21 0.26 0.28 0.36 0.51 0.68 0.79 0.78 0.65 0.54 0.51 0.51 0.53 0.60 0.71 0.72 0.62 0.62 0.70 0.69 0.70 0.65 0.50 0.47 0.61 0.78 0.83 0.75 0.58 0.44 0.33 0.28
0.22 0.22 0.22 0.24 0.25 0.32 0.34 0.30 0.35 0.49 0.60 0.69 0.72 0.65 0.55 0.47 0.42 0.42 0.43 0.50 0.54 0.50 0.42 0.44 0.56 0.60 0.66 0.65 0.64 0.67 0.76 0.93 0.96 0.87 0.75 0.62 0.49 0.38
0.22 0.27 0.35 0.39 0.41 0.44 0.48 0.52 0.53 0.53 0.51 0.60 0.60 0.52 0.43 0.39 0.37 0.35 0.39 0.44 0.49 0.49 0.42 0.38 0.44 0.55 0.67 0.66 0.73 0.81 0.84 1.04 1.07 0.96 0.89 0.81 0.66 0.51
0.20 0.33 0.49 0.53 0.53 0.52 0.50 0.50 0.52 0.49 0.50 0.50 0.48 0.45 0.43 0.38 0.36 0.31 0.33 0.36 0.43 0.46 0.44 0.38 0.40 0.44 0.45 0.50 0.62 0.69 0.74 0.91 1.03 0.97 0.90 0.98 0.95 0.73
0.25 0.44 0.53 0.54 0.54 0.49 0.45 0.41 0.40 0.40 0.39 0.40 0.40 0.41 0.40 0.37 0.35 0.32 0.30 0.32 0.36 0.36 0.35 0.33 0.33 0.35 0.33 0.36 0.57 0.66 0.68 0.86 0.95 0.86 0.76 0.89 1.03 0.87
0.28 0.39 0.44 0.47 0.48 0.43 0.40 0.38 0.37 0.34 0.31 0.32 0.34 0.34 0.33 0.32 0.31 0.30 0.28 0.29 0.32 0.32 0.30 0.25 0.24 0.27 0.28 0.41 0.60 0.77 0.75 0.78 0.80 0.74 0.67 0.68 0.89 0.90
0.29 0.33 0.35 0.38 0.40 0.38 0.35 0.32 0.30 0.27 0.25 0.25 0.26 0.28 0.28 0.28 0.26 0.26 0.25 0.25 0.28 0.29 0.26 0.23 0.22 0.25 0.28 0.37 0.61 0.79 0.80 0.64 0.56 0.61 0.64 0.65 0.76 0.76
0.25 0.28 0.27 0.27 0.28 0.29 0.30 0.30 0.26 0.24 0.22 0.21 0.21 0.22 0.24 0.25 0.25 0.21 0.19 0.15 0.20 0.23 0.23 0.24 0.24 0.20 0.19 0.20 0.40 0.61 0.69 0.75 0.63 0.53 0.52 0.54 0.52 0.43
0.20 0.23 0.23 0.23 0.22 0.21 0.20 0.20 0.20 0.18 0.16 0.17 0.19 0.20 0.20 0.20 0.19 0.17 0.16 0.17 0.17 0.18 0.19 0.21 0.19 0.17 0.17 0.22 0.38 0.53 0.56 0.51 0.50 0.52 0.50 0.36 0.24 0.26
0.19 0.20 0.19 0.18 0.17 0.15 0.13 0.12 0.12 0.13 0.13 0.14 0.16 0.18 0.17 0.15 0.13 0.11 0.09 0.08 0.08 0.09 0.12 0.14 0.15 0.13 0.14 0.17 0.24 0.31 0.31 0.26 0.19 0.20 0.34 0.40 0.31 0.31